Current weather by "City, St" or "zip code"  
 
Advertise Here

Current Conditions: Dublin / New River Valley, VA

Overcast


79.0 F

Last Updated on Aug 4 2020, 5:55 pm EDT
Humidity: 65%
Wind Speed: W 5.8 mph
Barometer 30.02 in
Dewpoint: 66.0 F
Visibility: 10.00 mi
Precip: --
Heat Index: NA
Wind Chill: NA
Current conditions at:

Dublin / New River Valley, VA (KPSK)

Lat: 37.13333 Lon: 80.68333

Local Radar Image active severe weather and emergency alerts image image weather storm and storm spotter reports image weather observation monitoring service image
Local
Radar
Active
Alerts
Storm Reports Obs
Monitoring

Sign-up For Email & Text Message Weather Alert Notification Services


Advertise Here

Observation History for Dublin / New River Valley, VA


Time Wind
(mph)
Vis
(mi)
Weather Precip (in) Temperature (F) Relative
Humidity
Wind
Chill
(F)
Heat
Index
(F)
Pressure
Air Dwpt altimeter
(in)
sea level
(mb)
Rmks
5:55 pm EDT W 5.8 10.00 Overcast -- 79.0 66.0 65% NA NA 30.02 M
4:55 pm EDT NW 6.9 10.00 Overcast -- 80.0 64.9 60% NA 82 30.02 M
3:55 pm EDT NW 9.2 10.00 Partly Cloudy -- 83.0 63.7 52% NA 84 30.01 M
2:55 pm EDT SW 11.5 10.00 Fair -- 84.0 64.4 52% NA 86 30.02 M
1:55 pm EDT W 9.2 10.00 Partly Cloudy -- 82.0 65.5 58% NA 84 30.02 M
12:55 pm EDT W 9.2 G 16.1 10.00 Mostly Cloudy -- 81.0 65.3 59% NA 83 30.02 M
11:55 am EDT W 13.8 G 18.4 10.00 Partly Cloudy -- 80.0 66.7 64% NA 82 30.01 M
10:55 am EDT W 8.1 10.00 Mostly Cloudy -- 78.0 67.3 70% NA NA 30.00 M
9:55 am EDT W 9.2 10.00 Partly Cloudy -- 75.0 67.1 76% NA NA 30.00 M
8:55 am EDT W 6.9 10.00 Mostly Cloudy -- 73.0 68.4 87% NA NA 29.99 M
7:55 am EDT W 5.8 10.00 Partly Cloudy -- 70.0 69.4 99% NA NA 29.98 M
6:55 am EDT W 4.6 10.00 Mostly Cloudy -- 67.0 67.5 100% NA NA 29.95 M
5:55 am EDT SW 5.8 10.00 Fair -- 67.0 67.1 100% NA NA 29.94 M
4:55 am EDT N 0.0 10.00 Overcast -- 68.0 68.0 100% NA NA 29.94 M
3:55 am EDT NW 3.5 10.00 Overcast -- 68.0 68.0 100% NA NA 29.95 M
2:55 am EDT NE 3.5 10.00 Overcast -- 68.0 68.4 100% NA NA 29.96 M
1:55 am EDT N 0.0 10.00 Overcast -- 69.0 68.5 100% NA NA 30.00 M
12:55 am EDT NE 3.5 10.00 Overcast -- 69.0 68.9 100% NA NA 30.03 M
11:55 pm EDT E 4.6 10.00 Overcast -- 69.0 69.4 100% NA NA 30.05 M
10:55 pm EDT E 5.8 10.00 Overcast -- 69.0 69.4 100% NA NA 30.06 M
9:55 pm EDT E 5.8 10.00 Overcast -- 70.0 69.8 100% NA NA 30.07 M
8:55 pm EDT E 4.6 10.00 Overcast -- 71.0 70.5 100% NA NA 30.05 M
7:55 pm EDT N 0.0 10.00 Mostly Cloudy -- 72.0 71.6 100% NA NA 30.05 M
6:55 pm EDT N 0.0 10.00 Fair -- 72.0 69.1 90% NA NA 30.06 M

Regional Weather Observation


Virginia Tech Airport, VA (KBCB)

Overcast
77.0 F

Bluefield, Mercer County Airport, WV (KBLF)

Light Rain
71.0 F

Beckley, Raleigh County Memorial Airport, WV (KBKW)

Overcast
73.0 F

Lewisburg / Greenbrier, WV (KLWB)

Clear
77.0 F

Pineville, Kee Field Airport, WV (KI16)

Mostly Cloudy
71.0 F

Tazewell County Airport, VA (KJFZ)

Mostly Cloudy
71.0 F